Location: Dzierzno
(50.6159°N, 19.2852°E)
Time: 02:54:19
(UTC+00:00)

PSLV R/B - Pass Details

Date: 18 November 2025
Orbit: 561 x 590 km, 98.0° (Epoch: 04 December)

Event Time Altitude Azimuth Distance (km) Brightness Sun altitude
Rises 16:15:16 0° 138° (SE) 2,759 6.6 -12.9°
Reaches altitude 10° 16:17:33 10° 128° (SE) 1,862 5.7 -13.2°
Maximum altitude 16:21:08 31° 66° (ENE) 1,002 4.1 -13.8°
Drops below altitude 10° 16:24:42 10° 4° (N) 1,867 5.9 -14.3°
Sets 16:27:00 0° 354° (N) 2,766 6.8 -14.7°
